sat.trackr.live / text

‹ back to catalog

STARLINK-5916

NORAD 55988 · 2023-042C

PAYLOAD ACTIVE UNKNOWN

§ Identity

Operator
Country
US
Launch date
2023-03-24
Launch site
AFETR
Launch vehicle
Mass (kg)
RCS (m²)

Purposes: comms

External: N2YO · Heavens-Above · Gunter

§ Orbital elements

Epoch: 2026-09-20T21:09:25.029216Z

Period
94.27 min
Inclination
43.0027°
Eccentricity
0.0001169
Mean motion
15.27577214 rev/d
Perigee alt
482.3 km
Apogee alt
483.9 km
Semi-major
6,861.2 km
B*
2.4736e-5
RAAN
41.3654°
Arg perigee
266.8459°
Mean anomaly
93.2259°
Rev number
19,267

§ Raw data

STARLINK-59161 55988U 23042C   26263.88153969  .00000419  00000+0  24736-4 0  99932 55988  43.0027  41.3654 0001169 266.8459  93.2259 15.27577214192679

JSON: /api/v1/satellites/55988 · /tle

For live sub-satellite position, see the globe view (requires WebGL).

§ Visibility from observer

Set your observer location to see the next 7 days of passes ≥ 10°. The values pass through the URL so the page stays shareable.

No JS? Fill the form by hand. The geolocation button needs JavaScript.